Weather History for Tarboro, NC

Change the Weather History Date:

Monday, April 28, 2014

  Actual Average Record
Temperature  
Mean Temperature 58 °F -  
Max Temperature 87 °F 76 °F 96 °F (1990)
Min Temperature 51 °F 48 °F 35 °F (1976)
Degree Days  
Heating Degree Days 8    
Growing Degree Days 8 (Base 50)    
Moisture  
Dew Point 51 °F    
Average Humidity 79    
Maximum Humidity 95    
Minimum Humidity 59    
Precipitation  
Precipitation 0.02 in - - ()
Sea Level Pressure  
Sea Level Pressure 30.01 in    
Wind  
Wind Speed 4 mph (ENE)    
Max Wind Speed 12 mph    
Max Gust Speed -    
Visibility 10 miles    
Events Rain    
Averages and records for this station are not official NWS values.
T = Trace of Precipitation, MM = Missing Value Source: NWS Daily Summary

Daily Weather History Graph

Daily Weather History Graph

Search for Another Location

Airport:

Trip Planner

Search our weather history database for the weather conditions in past years. The results will help you decide how hot, cold, wet, or windy it might be!

Date:

Astronomy

Apr. 28, 2014 Rise Set
Actual Time 6:21 AM EDT 7:54 PM EDT
Civil Twilight 5:53 AM EDT 8:22 PM EDT
Nautical Twilight 5:21 AM EDT 8:54 PM EDT
Astronomical Twilight 4:46 AM EDT 9:29 PM EDT
Moon 5:56 AM EDT 7:31 PM EDT
Length of Visible Light 14h 28m
Length of Day
13h 33m
Waning Crescent, 0% of the Moon is Illuminated
Apr 28
Waning Crescent
Apr 29
New
May 6
First Quarter
May 14
Full
May 21
Last Quarter

Hourly Weather History & Observations

Time (EDT) Temp. Dew Point Humidity Pressure Visibility Wind Dir Wind Speed Gust Speed Precip Events Conditions
12:15 AM 57.4 °F 43.9 °F 61% 30.07 in 10.0 mi East 4.6 mph - N/A   Clear
12:35 AM 56.7 °F 43.5 °F 61% 30.08 in 10.0 mi East 5.8 mph - N/A   Clear
12:55 AM 56.5 °F 42.4 °F 59% 30.08 in 10.0 mi East 4.6 mph - N/A   Clear
1:15 AM 56.1 °F 42.4 °F 60% 30.08 in 10.0 mi East 4.6 mph - N/A   Clear
1:35 AM 55.8 °F 42.6 °F 61% 30.07 in 10.0 mi East 4.6 mph - N/A   Clear
1:55 AM 55.0 °F 42.8 °F 63% 30.06 in 10.0 mi Calm Calm - N/A   Clear
2:15 AM 54.3 °F 43.7 °F 67% 30.05 in 10.0 mi Calm Calm - N/A   Clear
2:35 AM 53.8 °F 45.1 °F 73% 30.04 in 10.0 mi Calm Calm - N/A   Clear
2:55 AM 53.2 °F 45.3 °F 74% 30.03 in 10.0 mi Calm Calm - N/A   Clear
3:15 AM 52.9 °F 45.3 °F 75% 30.03 in 10.0 mi Calm Calm - N/A   Clear
3:35 AM 52.7 °F 44.8 °F 74% 30.03 in 10.0 mi Calm Calm - N/A   Clear
3:55 AM 52.3 °F 44.4 °F 74% 30.03 in 10.0 mi Calm Calm - N/A   Clear
4:15 AM 51.4 °F 45.0 °F 79% 30.03 in 10.0 mi Calm Calm - N/A   Clear
4:35 AM 51.3 °F 45.3 °F 80% 30.03 in 10.0 mi Calm Calm - N/A   Clear
4:55 AM 51.3 °F 45.0 °F 79% 30.03 in 10.0 mi Calm Calm - N/A   Clear
5:15 AM 51.3 °F 46.0 °F 82% 30.03 in 10.0 mi Calm Calm - N/A   Clear
5:35 AM 51.6 °F 46.0 °F 81% 30.02 in 10.0 mi Calm Calm - N/A   Clear
5:55 AM 51.4 °F 46.0 °F 82% 30.02 in 10.0 mi Calm Calm - N/A   Clear
6:15 AM 51.3 °F 46.4 °F 83% 30.03 in 10.0 mi Calm Calm - N/A   Mostly Cloudy
6:35 AM 51.3 °F 46.8 °F 85% 30.03 in 10.0 mi Calm Calm - N/A   Overcast
6:55 AM 51.8 °F 47.3 °F 85% 30.04 in 10.0 mi Calm Calm - N/A   Mostly Cloudy
7:15 AM 52.7 °F 48.0 °F 84% 30.04 in 10.0 mi NE 3.5 mph - N/A   Scattered Clouds
7:35 AM 53.6 °F 48.4 °F 82% 30.04 in 10.0 mi NE 3.5 mph - N/A   Clear
7:55 AM 54.3 °F 48.9 °F 82% 30.04 in 10.0 mi ENE 3.5 mph - N/A   Clear
8:15 AM 55.4 °F 49.3 °F 80% 30.03 in 10.0 mi ENE 4.6 mph - N/A   Scattered Clouds
8:35 AM 56.5 °F 49.8 °F 78% 30.03 in 10.0 mi East 4.6 mph - N/A   Clear
8:55 AM 57.4 °F 50.2 °F 77% 30.02 in 10.0 mi East 4.6 mph - N/A   Clear
9:15 AM 59.0 °F 50.5 °F 73% 30.02 in 10.0 mi East 5.8 mph - N/A   Clear
9:55 AM 61.9 °F 50.7 °F 67% 30.02 in 10.0 mi East 8.1 mph - N/A   Mostly Cloudy
10:15 AM 62.1 °F 51.4 °F 68% 30.03 in 10.0 mi East 3.5 mph - N/A   Overcast
10:35 AM 62.2 °F 52.3 °F 70% 30.03 in 10.0 mi East 3.5 mph - N/A   Overcast
10:55 AM 62.8 °F 53.4 °F 71% 30.04 in 10.0 mi SE 3.5 mph - N/A   Overcast
11:15 AM 62.6 °F 53.6 °F 72% 30.03 in 10.0 mi ESE 4.6 mph - N/A Rain Light Rain
11:35 AM 62.6 °F 54.0 °F 73% 30.02 in 10.0 mi East 5.8 mph - N/A Rain Light Rain
11:55 AM 63.1 °F 54.5 °F 73% 30.01 in 10.0 mi East 5.8 mph - N/A   Overcast
12:15 PM 64.2 °F 54.9 °F 72% 30.01 in 10.0 mi East 9.2 mph - N/A   Overcast
12:35 PM 64.0 °F 55.0 °F 73% 30.01 in 10.0 mi East 4.6 mph - N/A   Overcast
1:15 PM 63.9 °F 55.6 °F 74% 30.01 in 10.0 mi Calm Calm - N/A   Overcast
1:35 PM 63.7 °F 55.8 °F 75% 30.01 in 10.0 mi Calm Calm - N/A   Overcast
1:55 PM 63.7 °F 56.7 °F 78% 30.01 in 4.0 mi Calm Calm - 0.02 in Rain Rain
2:15 PM 63.0 °F 58.1 °F 84% 29.99 in 10.0 mi NNE 4.6 mph - N/A Rain Rain
2:35 PM 62.8 °F 58.3 °F 85% 29.99 in 10.0 mi NE 3.5 mph - N/A Rain Light Rain
2:55 PM 62.4 °F 57.9 °F 85% 29.99 in 10.0 mi NE 8.1 mph - N/A Rain Light Rain
3:15 PM 61.7 °F 57.2 °F 85% 29.99 in 10.0 mi NE 11.5 mph - N/A   Overcast
3:35 PM 61.7 °F 56.7 °F 84% 29.99 in 10.0 mi ENE 9.2 mph - N/A   Overcast
3:55 PM 61.3 °F 56.5 °F 84% 29.98 in 10.0 mi NE 8.1 mph - N/A   Overcast
4:15 PM 61.5 °F 56.3 °F 83% 29.98 in 10.0 mi NNE 8.1 mph - N/A   Overcast
4:35 PM 61.2 °F 55.6 °F 82% 29.96 in 10.0 mi ENE 6.9 mph - N/A   Overcast
5:15 PM 62.6 °F 55.6 °F 78% 29.95 in 10.0 mi East 5.8 mph - N/A   Mostly Cloudy
5:35 PM 61.9 °F 55.4 °F 79% 29.95 in 10.0 mi ENE 6.9 mph - N/A   Scattered Clouds
5:55 PM 61.2 °F 55.0 °F 80% 29.97 in 10.0 mi NNE 8.1 mph - N/A   Mostly Cloudy
6:15 PM 59.5 °F 53.8 °F 81% 29.97 in 10.0 mi NNE 8.1 mph - N/A   Overcast
6:35 PM 58.1 °F 52.7 °F 82% 29.96 in 10.0 mi NE 8.1 mph - N/A   Overcast
6:55 PM 56.8 °F 51.6 °F 83% 29.97 in 10.0 mi NNE 6.9 mph - N/A   Overcast
7:15 PM 56.3 °F 51.3 °F 83% 29.98 in 10.0 mi NE 6.9 mph - N/A   Overcast
7:35 PM 55.6 °F 51.1 °F 85% 29.98 in 10.0 mi NE 4.6 mph - N/A   Overcast
7:55 PM 55.0 °F 50.9 °F 86% 29.95 in 10.0 mi NE 8.1 mph - N/A   Overcast
8:15 PM 54.7 °F 51.3 °F 88% 29.94 in 10.0 mi East 5.8 mph - N/A   Overcast
8:35 PM 54.5 °F 51.4 °F 89% 29.94 in 10.0 mi ENE 4.6 mph - N/A   Overcast
8:55 PM 54.5 °F 52.0 °F 91% 29.96 in 10.0 mi Calm Calm - N/A   Overcast
9:15 PM 54.5 °F 52.2 °F 92% 29.96 in 10.0 mi NNE 3.5 mph - N/A   Overcast
9:35 PM 54.5 °F 52.3 °F 92% 29.96 in 7.0 mi Calm Calm - N/A   Overcast
9:55 PM 54.5 °F 52.5 °F 93% 29.96 in 5.0 mi Calm Calm - N/A   Overcast
10:15 PM 54.5 °F 52.7 °F 94% 29.98 in 2.5 mi NW 8.1 mph - N/A   Overcast
10:55 PM 53.6 °F 52.2 °F 95% 29.98 in 2.5 mi North 8.1 mph - N/A   Overcast
11:15 PM 53.2 °F 51.8 °F 95% 29.98 in 4.0 mi NNE 8.1 mph - N/A   Overcast
11:35 PM 53.1 °F 51.4 °F 94% 29.97 in 10.0 mi NE 3.5 mph - N/A   Overcast
11:55 PM 53.2 °F 51.4 °F 94% 29.96 in 10.0 mi Calm Calm - N/A   Overcast